Location: Prague
(50.0830°N, 14.4670°E)
Time: 23:44:02
(UTC+01:00)

RS-15 - Visible Passes

Search period start: 01 December 2021 00:00
Search period end: 11 December 2021 00:00
Orbit: 1883 x 2161 km, 64.8° (Epoch: 01 December)

Date Brightness Start Highest point End Pass type
(mag) Time Alt. Az. Time Alt. Az. Time Alt. Az.
01 Dec 10.0 01:09:48 10° ESE 01:12:28 11° E 01:15:11 10° ENE visible
01 Dec 8.6 03:15:14 27° S 03:21:30 50° ESE 03:32:49 10° NE visible
01 Dec 8.1 05:23:07 14° WSW 05:33:40 68° NW 05:45:55 10° NE visible
02 Dec 8.9 02:41:46 31° SE 02:45:51 40° ESE 02:56:31 10° NE visible
02 Dec 8.0 04:49:37 26° SW 04:57:25 78° NW 05:09:42 10° NE visible
02 Dec 8.5 07:00:50 10° W 07:12:00 43° NNW 07:23:37 10° NE visible
03 Dec 9.1 02:08:03 29° ESE 02:10:19 31° ESE 02:20:05 10° NE visible
03 Dec 8.0 04:15:53 40° SW 04:21:16 90° SE 04:33:32 10° NE visible
03 Dec 8.4 06:24:03 10° W 06:35:20 47° NNW 06:47:06 10° NE visible
04 Dec 9.4 01:34:08 24° ESE 01:34:55 24° E 01:43:25 10° NE visible
04 Dec 8.0 03:41:57 54° SSW 03:45:15 77° ESE 03:57:22 10° NE visible
04 Dec 8.3 05:49:46 18° W 05:58:44 52° NNW 06:10:40 10° NE visible
05 Dec 9.7 01:00:05 17° E 01:00:05 17° E 01:06:19 10° ENE visible
05 Dec 8.2 03:07:53 60° SSE 03:09:21 64° ESE 03:21:12 10° NE visible
05 Dec 8.2 05:15:42 30° W 05:22:13 58° NNW 05:34:19 10° NE visible
06 Dec 9.9 00:25:54 11° E 00:25:54 11° E 00:28:00 10° ENE visible
06 Dec 8.5 02:33:42 52° ESE 02:33:42 52° ESE 02:44:58 10° NE visible
06 Dec 8.0 04:41:31 44° WSW 04:45:50 66° NW 04:58:04 10° NE visible
06 Dec 8.6 06:49:52 10° WNW 07:00:58 41° N 07:12:29 10° ENE visible
07 Dec 8.8 01:59:27 40° E 01:59:27 40° E 02:08:41 10° NE visible
07 Dec 7.9 04:07:14 63° WSW 04:09:33 77° NW 04:21:51 10° NE visible
07 Dec 8.6 06:15:02 16° WNW 06:24:13 43° NNW 06:35:49 10° NE visible
08 Dec 9.2 01:25:06 29° E 01:25:06 29° E 01:32:17 10° NE visible
08 Dec 7.9 03:32:53 84° SW 03:33:24 88° NW 03:45:41 10° NE visible
08 Dec 8.4 05:40:41 25° WNW 05:47:32 46° NNW 05:59:17 10° NE visible
09 Dec 9.6 00:50:43 21° ENE 00:50:43 21° ENE 00:55:39 10° NE visible
09 Dec 8.1 02:58:29 73° ENE 02:58:29 73° ENE 03:09:30 10° NE visible
09 Dec 8.3 05:06:16 36° WNW 05:10:55 51° NNW 05:22:51 10° NE visible
10 Dec 9.8 00:16:16 14° ENE 00:16:16 14° ENE 00:18:39 10° ENE visible
10 Dec 8.4 02:24:01 55° ENE 02:24:01 55° ENE 02:33:20 10° NE visible
10 Dec 8.1 04:31:48 50° WNW 04:34:24 57° NNW 04:46:30 10° NE visible
10 Dec 8.7 06:39:35 12° WNW 06:49:59 40° N 07:01:27 10° ENE visible
